Preview of NWS' New Version of Forecast
This preview is not operational and should not be used for support decisions.
Latest weather observations around

Gadsden, Gadsden Municipal Airport (KGAD)

Using English Units (Switch to International System of Units)
Date/ Time (CDT) Wind (mph) Vis. (mi) Weather Sky Cond. Temp (°F) Rel. Humidity Wind Chill (°F) Heat Index (°F) Pressure Precip. (in)
Air Dwpt 6 hour Altimeter (inHg) Sea level (inHg) 1 hr 3 hr 6 hr
Max Min
Sep 17 11:56 Calm 10 Clear CLR 93 68     44%   97 30.04 30.03      
Sep 17 10:56 Calm 10 Clear CLR 90 68     49%   94 30.06 30.05      
Sep 17 09:56 Calm 10 Clear CLR 86 67     53%   89 30.06 30.06      
Sep 17 08:56 N 5 10 Clear CLR 80 66     62%   82 30.06 30.05      
Sep 17 07:56 Calm 10 Clear CLR 72 66     82%   73 30.06 30.05      
Sep 17 06:56 Calm 10 Clear CLR 65 64     97%     30.05 30.04      
Sep 17 05:56 Calm 10 Clear CLR 65 64     97%     30.03 30.02      
Sep 17 04:56 Calm 10 Clear CLR 65 64     97%     30.02 30.01      
Sep 17 03:56 Calm 10 Clear CLR 67 65     93%     30 30      
Sep 17 02:56 Calm 10 Clear CLR 67 66     97%     30 29.99      
Sep 17 01:56 Calm 10 Clear CLR 69 67     93%     30.01 30      
Sep 17 00:56 Calm 10 Clear CLR 69 67     93%     30.02 30.01      
Sep 16 23:56 Calm 10 Clear CLR 71 68     90%   72 30.02 30.02      
Sep 16 22:56 Calm 10 Clear CLR 72 68     87%   73 30.02 30.01      
Sep 16 21:56 Calm 10 Clear CLR 76 69     79%   77 30.02 30.01      
Sep 16 20:56 Calm 10 Clear CLR 77 70     79%   78 30.01 30.01      
Sep 16 19:56 SW 3 10 Clear CLR 77 72     84%   78 30 30      
Sep 16 18:56 SSW 3 10 Clear CLR 83 71     67%   88 29.99 29.99      
Sep 16 17:56 SSE 3 10 Clear CLR 93 68     44%   97 30 29.98      
Sep 16 16:56 W 5 10 Clear CLR 95 63     35%   96 30 29.99      
Sep 16 15:56 W 6 10 Clear CLR 95 65     37%   98 30.01 30      
Sep 16 14:56 3 10 Clear CLR 96 66     38%   100 30.02 30.01      
Sep 16 13:56 NNE 8 10 Clear CLR 95 66     39%   98 30.05 30.04      
Sep 16 13:14 NNE 10 10 Clear CLR 93 66     41%   96 30.07        
Sep 16 13:05 3 2.5 Haze CLR 93 66     41%   96 30.08        
Sep 16 12:56 ENE 8 10 Clear CLR 93 68     44%   97 30.08 30.07      
Sep 16 11:56 Calm 10 Clear CLR 90 70     52%   95 30.11 30.1      
Sep 16 10:56 Calm 10 Clear CLR 87 71     59%   93 30.13 30.12      
Sep 16 09:56 3 10 Clear CLR 83 70     65%   87 30.14 30.13      
Sep 16 08:56 Calm 10 Clear CLR 76 69     79%   77 30.14 30.14      
Sep 16 07:56 Calm 10 Clear CLR 71 66     84%   72 30.14 30.13      
Sep 16 06:56 Calm 10 Clear CLR 66 64     93%     30.12 30.12      
Sep 16 05:56 Calm 10 Clear CLR 65 64     97%     30.11 30.11      
Sep 16 04:56 Calm 10 Clear CLR 66 65     96%     30.1 30.09      
Sep 16 03:56 Calm 10 Clear CLR 68 66     93%     30.09 30.09      
Sep 16 02:56 Calm 10 Clear CLR 68 67     96%     30.09 30.08      
Sep 16 01:56 Calm 10 Clear CLR 70 68     93%     30.09 30.08      
Sep 16 00:56 Calm 10 Clear CLR 70 68     93%     30.09 30.08      
Sep 15 23:56 Calm 10 Clear CLR 71 69     93%   72 30.09 30.08      
Sep 15 22:56 Calm 10 Clear CLR 73 70     90%   74 30.09 30.08      
Sep 15 21:56 Calm 10 Clear CLR 72 70     93%   73 30.08 30.08      
Sep 15 20:56 Calm 10 Clear CLR 75 71     88%   76 30.07 30.06      
Sep 15 19:56 Calm 10 Clear CLR 77 72     84%   78 30.05 30.05      
Sep 15 18:56 Calm 10 Clear CLR 86 68     55%   89 30.05 30.04      
Sep 15 17:56 ENE 5 10 Clear CLR 90 68     49%   94 30.05 30.04      
Sep 15 16:56 E 9 10 Clear CLR 92 67     44%   95 30.05 30.04      
Sep 15 15:56 ESE 8 10 Clear CLR 92 71     51%   99 30.06 30.05      
Sep 15 14:56 E 8 10 Clear CLR 92 72     52%   100 30.08 30.07      
Sep 15 13:56 E 8 10 Clear CLR 91 72     54%   99 30.11 30.1      
Sep 15 12:56 ENE 7 10 Clear CLR 89 72     57%   96 30.14 30.14      
Sep 15 11:56 E 7 10 Clear CLR 86 71     61%   92 30.17 30.16      
Sep 15 10:56 Calm 10 Clear CLR 84 71     65%   89 30.17 30.17      
Sep 15 09:56 Calm 10 Clear CLR 80 70     71%   83 30.18 30.18      
Sep 15 08:56 Calm 10 Clear CLR 76 71     85%   77 30.19 30.19      
Sep 15 07:56 NNE 3 10 Clear CLR 72 70     93%   73 30.19 30.18      
Sep 15 06:56 Calm 6 Fog/Mist CLR 69 68     96%     30.17 30.17      
Sep 15 05:56 Calm 9 Clear CLR 69 68     96%     30.17 30.16      
Sep 15 04:56 NNE 5 10 Clear CLR 71 69     93%   72 30.16 30.15      
Sep 15 03:56 ENE 3 10 Clear CLR 72 69     91%   73 30.15 30.15      
Sep 15 02:56 NNE 5 10 Clear CLR 72 69     91%   73 30.15 30.15      
Sep 15 01:56 NE 5 10 Clear CLR 74 70     87%   75 30.16 30.15      
Sep 15 00:56 NNE 3 9 Clear CLR 73 71     94%   74 30.17 30.16      
Sep 14 23:56 Calm 8 Clear CLR 73 72     96%   75 30.16 30.16      
Sep 14 22:56 Calm 10 Clear CLR 75 73     94%   77 30.17 30.17      
Sep 14 21:56 Calm 10 Clear CLR 76 73     91%   77 30.18 30.17      
Sep 14 20:56 NNE 3 10 Clear CLR 76 73     91%   77 30.17 30.16      
Sep 14 19:56 Calm 10 Clear CLR 79 73     82%   82 30.15 30.14      
Sep 14 18:56 NE 5 10 Clear CLR 82 73     74%   87 30.15 30.14      
Sep 14 17:56 E 6 10 Clear CLR 87 72     61%   94 30.14 30.14      
Sep 14 17:10 E 7 10 Clear CLR 88 72     59%   94 30.14        
Sep 14 16:56 ENE 9 10 Clear CLR 88 72     59%   95 30.14 30.13      
Sep 14 15:56 E 9 10 Clear CLR 91 72     54%   99 30.15 30.14      
Sep 14 14:56 ENE 10 10 Clear CLR 90 72     56%   97 30.16 30.15      
Sep 14 13:56 E 9 10 Clear CLR 89 73     59%   97 30.19 30.19      
May 15 08:56 SE 6 10 Mostly Clear FEW060 77 68     74%   78 30.02 30.01      
May 15 05:56 NNW 6 4 Fog/Mist CLR 65 65     100%     30.01 30      
May 15 03:56 Calm 8 Mostly Clear FEW070 67 67     100%     29.99 29.98      
May 14 13:56 N 5 10 Clear CLR 91 65     42%   93 30.02 30.01      
May 14 11:56 NNE 9 10 Mostly Clear FEW060 87 65     48%   89 30.05 30.04      
May 13 18:56 Calm 10 Clear CLR 85 67     55%   88 30.03 30.03      
May 13 17:56 WNW 6 10 Clear CLR 88 64     45%   89 30.03 30.03      
May 13 03:56 Calm 2 Fog/Mist CLR 58 58     100%     30.09 30.09      
May 13 00:56 Calm 5 Fog/Mist CLR 61 61     100%     30.09 30.09      
May 12 04:56 Calm 8 Clear CLR 59 59     100%     30.14 30.14      
May 12 03:56 W 3 8 Clear CLR 59 59     100%     30.12 30.11      
May 11 20:56 WSW 3 10 Clear CLR 70 66     87%     30.09 30.09      
Jun 12 04:56 Calm 10 Mostly Cloudy FEW028 BKN034 70 69     97%     30.15 30.18      
Jun 11 10:20 Calm 10 Mostly Cloudy BKN021 81 72     74%   85 30.18        
Jun 10 21:56 Calm 10 Clear   70 64     81%     30.11 30.14      
Jun 10 20:56 Calm 10 Clear CLR 74 64     71%   74 30.08 30.11      
Jun 10 03:56 Calm 10 Mostly Clear FEW070 60 60     100%     30.02 30.05      
Jun 08 22:56 Calm 10 Mostly Clear FEW060 62 60     93%     29.93 29.97      
Jun 07 18:56 N 9 10 Clear CLR 77 55     47%   77 29.85 29.89      
Jun 07 15:56 NNE 14 10 Clear CLR 82 54     38%   81 29.83 29.86      
Jun 07 13:56 N 10 10 Clear CLR 81 60     49%   82 29.83 29.87      
Jun 07 11:56 NE 10 10 Clear CLR 78 62     58%   78 29.85        
Jun 06 04:23 Calm 7 Partly Cloudy SCT003 70 70     100%     29.8        
Jun 05 23:56 Calm 10 Light Rain CLR 71 70     96%   72 29.84 29.86 0